| time (UTC) | temp F | wind direction | speed MPH | gust MPH | rain 1hr in | rain 24hr in | rain mn in | humidity % | barometer mb |
| 20260901045437 | 76 | 309 | 3.0 | 5.0 | 0.00 | 0.00 | 0.00 | 66 | 1013.5 |
| 20260901044937 | 76 | 314 | 2.0 | 5.0 | 0.00 | 0.00 | 0.00 | 66 | 1013.5 |
| 20260901044437 | 76 | 324 | 3.0 | 5.0 | 0.00 | 0.00 | 0.00 | 67 | 1013.5 |
| 20260901043937 | 77 | 317 | 3.0 | 4.0 | 0.00 | 0.00 | 0.00 | 66 | 1013.5 |
| 20260901043437 | 77 | 324 | 3.0 | 4.0 | 0.00 | 0.00 | 0.00 | 66 | 1013.5 |
| 20260901042938 | 77 | 316 | 3.0 | 4.0 | 0.00 | 0.00 | 0.00 | 66 | 1013.5 |
| 20260901042439 | 77 | 318 | 2.0 | 4.0 | 0.00 | 0.00 | 0.00 | 65 | 1013.5 |
| 20260901041937 | 77 | 322 | 3.0 | 5.0 | 0.00 | 0.00 | 0.00 | 65 | 1013.5 |
| 20260901041437 | 77 | 313 | 2.0 | 5.0 | 0.00 | 0.00 | 0.00 | 65 | 1013.5 |
| 20260901040937 | 78 | 328 | 3.0 | 5.0 | 0.00 | 0.00 | 0.00 | 65 | 1013.5 |
| 20260901040437 | 78 | 329 | 4.0 | 5.0 | 0.00 | 0.00 | 0.00 | 65 | 1013.5 |
| 20260901035937 | 78 | 338 | 3.0 | 5.0 | 0.00 | 0.00 | 0.00 | 64 | 1013.5 |
| 20260901035437 | 78 | 333 | 3.0 | 5.0 | 0.00 | 0.00 | 0.00 | 63 | 1013.5 |
| 20260901034938 | 78 | 330 | 4.0 | 6.0 | 0.00 | 0.00 | 0.00 | 63 | 1013.5 |
| 20260901034437 | 79 | 339 | 4.0 | 5.0 | 0.00 | 0.00 | 0.00 | 63 | 1013.5 |
| 20260901033937 | 79 | 334 | 4.0 | 5.0 | 0.00 | 0.00 | 0.00 | 62 | 1013.5 |
| 20260901033437 | 79 | 345 | 4.0 | 5.0 | 0.00 | 0.00 | 0.00 | 61 | 1013.5 |
| 20260901032937 | 80 | 350 | 4.0 | 5.0 | 0.00 | 0.00 | 0.00 | 62 | 1013.5 |
| 20260901032437 | 80 | 348 | 4.0 | 5.0 | 0.00 | 0.00 | 0.00 | 60 | 1013.5 |
| 20260901031937 | 80 | 346 | 4.0 | 6.0 | 0.00 | 0.00 | 0.00 | 60 | 1013.5 |
| 20260901031437 | 81 | 355 | 4.0 | 6.0 | 0.00 | 0.00 | 0.00 | 59 | 1013.5 |
| 20260901030937 | 81 | 326 | 4.0 | 6.0 | 0.00 | 0.00 | 0.00 | 59 | 1013.5 |
| 20260901030437 | 81 | 320 | 3.0 | 5.0 | 0.00 | 0.00 | 0.00 | 58 | 1013.5 |
| 20260901025937 | 81 | 311 | 3.0 | 5.0 | 0.00 | 0.00 | 0.00 | 58 | 1013.5 |
| 20260901025438 | 81 | 317 | 2.0 | 6.0 | 0.00 | 0.00 | 0.00 | 58 | 1013.5 |
| 20260901024937 | 82 | 322 | 3.0 | 5.0 | 0.00 | 0.00 | 0.00 | 57 | 1013.5 |
| 20260901024438 | 82 | 323 | 2.0 | 6.0 | 0.00 | 0.00 | 0.00 | 57 | 1013.5 |
| 20260901023937 | 82 | 314 | 2.0 | 6.0 | 0.00 | 0.00 | 0.00 | 56 | 1013.5 |
| 20260901023437 | 83 | 316 | 2.0 | 6.0 | 0.00 | 0.00 | 0.00 | 56 | 1013.5 |
| 20260901022937 | 83 | 321 | 3.0 | 6.0 | 0.00 | 0.00 | 0.00 | 55 | 1013.5 |
| 20260901022437 | 83 | 319 | 3.0 | 4.0 | 0.00 | 0.00 | 0.00 | 55 | 1013.5 |
| 20260901021937 | 83 | 294 | 1.0 | 6.0 | 0.00 | 0.00 | 0.00 | 55 | 1013.5 |
| 20260901021437 | 83 | 328 | 3.0 | 5.0 | 0.00 | 0.00 | 0.00 | 55 | 1013.5 |
| 20260901020937 | 83 | 299 | 2.0 | 6.0 | 0.00 | 0.00 | 0.00 | 54 | 1013.5 |
| 20260901020438 | 83 | 326 | 3.0 | 5.0 | 0.00 | 0.00 | 0.00 | 55 | 1013.5 |
| 20260901015938 | 83 | 291 | 2.0 | 6.0 | 0.00 | 0.00 | 0.00 | 54 | 1013.5 |
| 20260901015437 | 83 | 294 | 2.0 | 6.0 | 0.00 | 0.00 | 0.00 | 54 | 1013.5 |
| 20260901014937 | 83 | 324 | 4.0 | 6.0 | 0.00 | 0.00 | 0.00 | 55 | 1013.5 |
| 20260901014437 | 83 | 323 | 4.0 | 5.0 | 0.00 | 0.00 | 0.00 | 55 | 1013.5 |
| 20260901013937 | 84 | 323 | 4.0 | 5.0 | 0.00 | 0.00 | 0.00 | 54 | 1013.5 |
| 20260901013437 | 84 | 314 | 2.0 | 5.0 | 0.00 | 0.00 | 0.00 | 53 | 1013.5 |
| 20260901012938 | 84 | 329 | 4.0 | 5.0 | 0.00 | 0.00 | 0.00 | 53 | 1013.5 |
| 20260901012438 | 85 | 323 | 4.0 | 5.0 | 0.00 | 0.00 | 0.00 | 52 | 1013.5 |
| 20260901011937 | 86 | 320 | 4.0 | 6.0 | 0.00 | 0.00 | 0.00 | 51 | 1013.5 |
| 20260901011437 | 87 | 354 | 5.0 | 8.0 | 0.00 | 0.00 | 0.00 | 50 | 1013.5 |
| 20260901010937 | 87 | 342 | 5.0 | 8.0 | 0.00 | 0.00 | 0.00 | 48 | 1013.5 |
| 20260901010437 | 88 | 349 | 5.0 | 9.0 | 0.00 | 0.00 | 0.00 | 47 | 1013.5 |
| 20260901005937 | 89 | 344 | 5.0 | 7.0 | 0.00 | 0.00 | 0.00 | 45 | 1013.5 |
| 20260901005437 | 90 | 288 | 3.0 | 6.0 | 0.00 | 0.00 | 0.00 | 44 | 1013.5 |
| 20260901004938 | 90 | 225 | 2.0 | 6.0 | 0.00 | 0.00 | 0.00 | 44 | 1013.5 |
| 20260901004437 | 91 | 239 | 3.0 | 6.0 | 0.00 | 0.00 | 0.00 | 44 | 1013.5 |
| 20260901003938 | 92 | 247 | 3.0 | 7.0 | 0.00 | 0.00 | 0.00 | 42 | 1013.5 |
| 20260901003437 | 92 | 127 | 3.0 | 6.0 | 0.00 | 0.00 | 0.00 | 41 | 1013.5 |
| 20260901002937 | 92 | 205 | 3.0 | 7.0 | 0.00 | 0.00 | 0.00 | 41 | 1013.5 |
| 20260901002437 | 93 | 122 | 3.0 | 6.0 | 0.00 | 0.00 | 0.00 | 40 | 1013.5 |
| 20260901001938 | 93 | 239 | 4.0 | 6.0 | 0.00 | 0.00 | 0.00 | 40 | 1013.5 |
| 20260901001437 | 94 | 50 | 3.0 | 6.0 | 0.00 | 0.00 | 0.00 | 39 | 1013.5 |
| 20260901000938 | 94 | 199 | 3.0 | 8.0 | 0.00 | 0.00 | 0.00 | 39 | 1013.5 |
| 20260901000437 | 94 | 197 | 2.0 | 6.0 | 0.00 | 0.00 | 0.00 | 39 | 1013.5 |
| 20260831235937 | 95 | 207 | 3.0 | 7.0 | 0.00 | 0.00 | 0.00 | 38 | 1013.5 |
| 20260831235437 | 95 | 188 | 3.0 | 8.0 | 0.00 | 0.00 | 0.00 | 38 | 1013.5 |
| 20260831234937 | 96 | 347 | 4.0 | 8.0 | 0.00 | 0.00 | 0.00 | 37 | 1013.5 |
| 20260831234438 | 96 | 143 | 3.0 | 7.0 | 0.00 | 0.00 | 0.00 | 36 | 1013.5 |
| 20260831233937 | 97 | 176 | 2.0 | 5.0 | 0.00 | 0.00 | 0.00 | 36 | 1013.5 |
| 20260831233437 | 97 | 174 | 3.0 | 6.0 | 0.00 | 0.00 | 0.00 | 35 | 1013.5 |
| 20260831232938 | 97 | 160 | 3.0 | 6.0 | 0.00 | 0.00 | 0.00 | 35 | 1013.5 |
| 20260831232438 | 98 | 87 | 4.0 | 8.0 | 0.00 | 0.00 | 0.00 | 34 | 1013.5 |
| 20260831231937 | 98 | 145 | 4.0 | 6.0 | 0.00 | 0.00 | 0.00 | 34 | 1013.5 |
| 20260831231437 | 98 | 97 | 3.0 | 8.0 | 0.00 | 0.00 | 0.00 | 33 | 1013.5 |
| 20260831230937 | 98 | 121 | 3.0 | 9.0 | 0.00 | 0.00 | 0.00 | 34 | 1013.5 |
| 20260831230438 | 98 | 152 | 4.0 | 9.0 | 0.00 | 0.00 | 0.00 | 33 | 1013.5 |
| 20260831225937 | 98 | 351 | 4.0 | 8.0 | 0.00 | 0.00 | 0.00 | 34 | 1013.5 |
| 20260831225438 | 98 | 139 | 4.0 | 8.0 | 0.00 | 0.00 | 0.00 | 34 | 1013.5 |
| 20260831224937 | 98 | 171 | 6.0 | 8.0 | 0.00 | 0.00 | 0.00 | 33 | 1013.5 |
| 20260831224438 | 98 | 88 | 3.0 | 6.0 | 0.00 | 0.00 | 0.00 | 33 | 1013.5 |
| 20260831223940 | 97 | 126 | 2.0 | 4.0 | 0.00 | 0.00 | 0.00 | 33 | 1013.5 |
| 20260831223437 | 97 | 166 | 3.0 | 5.0 | 0.00 | 0.00 | 0.00 | 34 | 1013.5 |
| 20260831222937 | 98 | 222 | 3.0 | 5.0 | 0.00 | 0.00 | 0.00 | 33 | 1013.5 |
| 20260831222438 | 98 | 235 | 2.0 | 5.0 | 0.00 | 0.00 | 0.00 | 33 | 1013.5 |
| 20260831221937 | 99 | 263 | 1.0 | 5.0 | 0.00 | 0.00 | 0.00 | 32 | 1013.5 |
| 20260831221438 | 99 | 187 | 3.0 | 5.0 | 0.00 | 0.00 | 0.00 | 32 | 1013.5 |
| 20260831220939 | 100 | 197 | 2.0 | 6.0 | 0.00 | 0.00 | 0.00 | 32 | 1013.5 |
| 20260831220437 | 100 | 206 | 4.0 | 8.0 | 0.00 | 0.00 | 0.00 | 31 | 1013.5 |
| 20260831215938 | 101 | 153 | 3.0 | 10.0 | 0.00 | 0.00 | 0.00 | 31 | 1013.5 |
| 20260831215437 | 101 | 313 | 5.0 | 10.0 | 0.00 | 0.00 | 0.00 | 30 | 1013.5 |
| 20260831214937 | 101 | 213 | 2.0 | 5.0 | 0.00 | 0.00 | 0.00 | 31 | 1013.5 |
| 20260831214437 | 101 | 235 | 1.0 | 7.0 | 0.00 | 0.00 | 0.00 | 31 | 1013.5 |
| 20260831213937 | 101 | 251 | 3.0 | 8.0 | 0.00 | 0.00 | 0.00 | 31 | 1013.5 |
| 20260831213441 | 101 | 155 | 5.0 | 12.0 | 0.00 | 0.00 | 0.00 | 30 | 1013.5 |
| 20260831212937 | 101 | 313 | 2.0 | 8.0 | 0.00 | 0.00 | 0.00 | 30 | 1013.5 |
| 20260831212438 | 101 | 346 | 3.0 | 8.0 | 0.00 | 0.00 | 0.00 | 30 | 1013.5 |
| 20260831211937 | 102 | 178 | 5.0 | 8.0 | 0.00 | 0.00 | 0.00 | 30 | 1013.5 |
| 20260831211437 | 101 | 10 | 2.0 | 8.0 | 0.00 | 0.00 | 0.00 | 30 | 1013.5 |
| 20260831210937 | 101 | 162 | 3.0 | 7.0 | 0.00 | 0.00 | 0.00 | 31 | 1013.5 |
| 20260831210438 | 101 | 316 | 4.0 | 8.0 | 0.00 | 0.00 | 0.00 | 30 | 1013.5 |
| 20260831205938 | 102 | 305 | 4.0 | 9.0 | 0.00 | 0.00 | 0.00 | 30 | 1013.5 |
| 20260831205438 | 102 | 308 | 5.0 | 9.0 | 0.00 | 0.00 | 0.00 | 30 | 1013.5 |
| 20260831204939 | 101 | 275 | 2.0 | 7.0 | 0.00 | 0.00 | 0.00 | 30 | 1013.5 |
| 20260831204438 | 101 | 154 | 4.0 | 8.0 | 0.00 | 0.00 | 0.00 | 30 | 1013.5 |
| 20260831203938 | 100 | 332 | 3.0 | 8.0 | 0.00 | 0.00 | 0.00 | 30 | 1013.5 |
| 20260831203437 | 100 | 187 | 5.0 | 9.0 | 0.00 | 0.00 | 0.00 | 30 | 1013.5 |
| 20260831202938 | 100 | 174 | 5.0 | 13.0 | 0.00 | 0.00 | 0.00 | 31 | 1013.5 |
| 20260831202437 | 100 | 146 | 6.0 | 11.0 | 0.00 | 0.00 | 0.00 | 31 | 1013.5 |
| 20260831201937 | 101 | 154 | 6.0 | 11.0 | 0.00 | 0.00 | 0.00 | 31 | 1013.5 |
| 20260831201437 | 101 | 174 | 4.0 | 8.0 | 0.00 | 0.00 | 0.00 | 31 | 1013.5 |
| 20260831200938 | 101 | 354 | 5.0 | 8.0 | 0.00 | 0.00 | 0.00 | 30 | 1013.5 |
| 20260831200437 | 102 | 180 | 5.0 | 11.0 | 0.00 | 0.00 | 0.00 | 29 | 1013.5 |
| 20260831195937 | 103 | 328 | 4.0 | 13.0 | 0.00 | 0.00 | 0.00 | 29 | 1013.5 |
| 20260831195443 | 103 | 37 | 3.0 | 8.0 | 0.00 | 0.00 | 0.00 | 28 | 1013.5 |
| 20260831194937 | 102 | 209 | 4.0 | 11.0 | 0.00 | 0.00 | 0.00 | 29 | 1013.5 |
| 20260831194438 | 102 | 351 | 7.0 | 10.0 | 0.00 | 0.00 | 0.00 | 28 | 1013.5 |
| 20260831193938 | 101 | 197 | 3.0 | 7.0 | 0.00 | 0.00 | 0.00 | 29 | 1013.5 |
| 20260831193437 | 101 | 173 | 4.0 | 13.0 | 0.00 | 0.00 | 0.00 | 29 | 1013.5 |
| 20260831192937 | 102 | 158 | 3.0 | 7.0 | 0.00 | 0.00 | 0.00 | 30 | 1013.5 |
| 20260831192438 | 102 | 321 | 4.0 | 7.0 | 0.00 | 0.00 | 0.00 | 30 | 1013.5 |
| 20260831191937 | 102 | 270 | 3.0 | 8.0 | 0.00 | 0.00 | 0.00 | 30 | 1013.5 |
| 20260831191438 | 102 | 184 | 4.0 | 8.0 | 0.00 | 0.00 | 0.00 | 30 | 1013.5 |
| 20260831190937 | 102 | 320 | 3.0 | 8.0 | 0.00 | 0.00 | 0.00 | 30 | 1013.5 |
| 20260831190438 | 101 | 250 | 3.0 | 10.0 | 0.00 | 0.00 | 0.00 | 30 | 1013.5 |
| 20260831185938 | 101 | 278 | 7.0 | 10.0 | 0.00 | 0.00 | 0.00 | 31 | 1013.5 |
| 20260831185437 | 101 | 199 | 4.0 | 11.0 | 0.00 | 0.00 | 0.00 | 31 | 1013.5 |
| 20260831184937 | 100 | 288 | 6.0 | 11.0 | 0.00 | 0.00 | 0.00 | 32 | 1013.5 |
| 20260831184438 | 101 | 310 | 5.0 | 9.0 | 0.00 | 0.00 | 0.00 | 32 | 1013.5 |
| 20260831183937 | 102 | 122 | 3.0 | 8.0 | 0.00 | 0.00 | 0.00 | 31 | 1013.5 |
| 20260831183437 | 101 | 360 | 4.0 | 11.0 | 0.00 | 0.00 | 0.00 | 30 | 1013.5 |
| 20260831182937 | 100 | 330 | 5.0 | 11.0 | 0.00 | 0.00 | 0.00 | 30 | 1013.5 |
| 20260831182438 | 100 | 241 | 5.0 | 9.0 | 0.00 | 0.00 | 0.00 | 31 | 1013.5 |
| 20260831181938 | 99 | 145 | 3.0 | 8.0 | 0.00 | 0.00 | 0.00 | 33 | 1013.5 |
| 20260831181437 | 98 | 122 | 4.0 | 9.0 | 0.00 | 0.00 | 0.00 | 33 | 1013.5 |
| 20260831180938 | 97 | 176 | 3.0 | 10.0 | 0.00 | 0.00 | 0.00 | 34 | 1013.5 |
| 20260831180437 | 97 | 20 | 7.0 | 10.0 | 0.00 | 0.00 | 0.00 | 34 | 1013.5 |
| 20260831175937 | 97 | 7 | 7.0 | 9.0 | 0.00 | 0.00 | 0.00 | 34 | 1013.5 |
| 20260831175437 | 97 | 143 | 3.0 | 10.0 | 0.00 | 0.00 | 0.00 | 33 | 1013.5 |
| 20260831174937 | 97 | 349 | 6.0 | 9.0 | 0.00 | 0.00 | 0.00 | 33 | 1013.5 |
| 20260831174437 | 96 | 18 | 5.0 | 11.0 | 0.00 | 0.00 | 0.00 | 33 | 1013.5 |
| 20260831173937 | 96 | 346 | 7.0 | 9.0 | 0.00 | 0.00 | 0.00 | 34 | 1013.5 |
| 20260831173437 | 97 | 294 | 3.0 | 9.0 | 0.00 | 0.00 | 0.00 | 33 | 1013.5 |
| 20260831172937 | 97 | 316 | 5.0 | 10.0 | 0.00 | 0.00 | 0.00 | 34 | 1013.5 |
| 20260831172437 | 98 | 8 | 6.0 | 10.0 | 0.00 | 0.00 | 0.00 | 34 | 1013.5 |
| 20260831171938 | 98 | 217 | 5.0 | 9.0 | 0.00 | 0.00 | 0.00 | 35 | 1013.5 |
| 20260831171437 | 99 | 342 | 5.0 | 13.0 | 0.00 | 0.00 | 0.00 | 34 | 1013.5 |
| 20260831170937 | 99 | 18 | 6.0 | 12.0 | 0.00 | 0.00 | 0.00 | 35 | 1013.5 |
| 20260831170441 | 99 | 325 | 8.0 | 12.0 | 0.00 | 0.00 | 0.00 | 34 | 1013.5 |
| 20260831165937 | 99 | 263 | 3.0 | 13.0 | 0.00 | 0.00 | 0.00 | 38 | 1013.5 |
| 20260831165438 | 100 | 360 | 7.0 | 13.0 | 0.00 | 0.00 | 0.00 | 34 | 1013.5 |
| 20260831164937 | 99 | 360 | 9.0 | 13.0 | 0.00 | 0.00 | 0.00 | 35 | 1013.5 |
| 20260831164437 | 98 | 352 | 4.0 | 11.0 | 0.00 | 0.00 | 0.00 | 36 | 1013.5 |
| 20260831163940 | 98 | 309 | 4.0 | 9.0 | 0.00 | 0.00 | 0.00 | 38 | 1013.5 |
| 20260831163438 | 98 | 291 | 4.0 | 7.0 | 0.00 | 0.00 | 0.00 | 38 | 1013.5 |
| 20260831162937 | 97 | 172 | 3.0 | 8.0 | 0.00 | 0.00 | 0.00 | 39 | 1013.5 |
| 20260831162440 | 97 | 273 | 4.0 | 10.0 | 0.00 | 0.00 | 0.00 | 39 | 1013.5 |
| 20260831161937 | 97 | 343 | 6.0 | 13.0 | 0.00 | 0.00 | 0.00 | 40 | 1013.5 |
| 20260831161438 | 96 | 101 | 2.0 | 9.0 | 0.00 | 0.00 | 0.00 | 40 | 1013.5 |
| 20260831160938 | 96 | 222 | 4.0 | 7.0 | 0.00 | 0.00 | 0.00 | 40 | 1013.5 |
| 20260831160439 | 94 | 142 | 3.0 | 13.0 | 0.00 | 0.00 | 0.00 | 42 | 1013.5 |
| 20260831155938 | 94 | 191 | 6.0 | 9.0 | 0.00 | 0.00 | 0.00 | 43 | 1013.5 |
| 20260831155438 | 94 | 205 | 4.0 | 10.0 | 0.00 | 0.00 | 0.00 | 44 | 1013.5 |
| 20260831154939 | 94 | 304 | 6.0 | 12.0 | 0.00 | 0.00 | 0.00 | 44 | 1013.5 |
| 20260831154438 | 95 | 215 | 3.0 | 7.0 | 0.00 | 0.00 | 0.00 | 43 | 1013.5 |
| 20260831153937 | 94 | 275 | 4.0 | 8.0 | 0.00 | 0.00 | 0.00 | 43 | 1013.5 |
| 20260831153437 | 92 | 44 | 4.0 | 9.0 | 0.00 | 0.00 | 0.00 | 46 | 1013.5 |
| 20260831152938 | 92 | 162 | 6.0 | 9.0 | 0.00 | 0.00 | 0.00 | 48 | 1013.5 |
| 20260831152438 | 92 | 183 | 4.0 | 9.0 | 0.00 | 0.00 | 0.00 | 48 | 1013.5 |
| 20260831151940 | 92 | 140 | 4.0 | 10.0 | 0.00 | 0.00 | 0.00 | 48 | 1013.5 |
| 20260831151437 | 92 | 248 | 4.0 | 9.0 | 0.00 | 0.00 | 0.00 | 48 | 1013.5 |
| 20260831150938 | 92 | 134 | 4.0 | 10.0 | 0.00 | 0.00 | 0.00 | 47 | 1013.5 |
| 20260831150437 | 91 | 1 | 6.0 | 9.0 | 0.00 | 0.00 | 0.00 | 49 | 1013.5 |
| 20260831145937 | 90 | 211 | 3.0 | 6.0 | 0.00 | 0.00 | 0.00 | 49 | 1013.5 |
| 20260831145438 | 89 | 161 | 2.0 | 7.0 | 0.00 | 0.00 | 0.00 | 51 | 1013.5 |
| 20260831144939 | 88 | 331 | 4.0 | 9.0 | 0.00 | 0.00 | 0.00 | 53 | 1013.5 |
| 20260831144437 | 87 | 211 | 4.0 | 8.0 | 0.00 | 0.00 | 0.00 | 53 | 1013.5 |
| 20260831143937 | 86 | 137 | 5.0 | 10.0 | 0.00 | 0.00 | 0.00 | 55 | 1013.5 |
| 20260831143438 | 86 | 216 | 6.0 | 10.0 | 0.00 | 0.00 | 0.00 | 56 | 1013.5 |
| 20260831142937 | 86 | 123 | 3.0 | 10.0 | 0.00 | 0.00 | 0.00 | 55 | 1013.5 |
| 20260831142437 | 85 | 182 | 6.0 | 9.0 | 0.00 | 0.00 | 0.00 | 56 | 1013.5 |
| 20260831141938 | 85 | 137 | 4.0 | 8.0 | 0.00 | 0.00 | 0.00 | 56 | 1013.5 |
| 20260831141438 | 84 | 215 | 3.0 | 5.0 | 0.00 | 0.00 | 0.00 | 57 | 1013.5 |
| 20260831140938 | 84 | 172 | 3.0 | 7.0 | 0.00 | 0.00 | 0.00 | 57 | 1013.5 |
| 20260831140437 | 84 | 242 | 4.0 | 6.0 | 0.00 | 0.00 | 0.00 | 59 | 1013.5 |
| 20260831135937 | 84 | 278 | 2.0 | 5.0 | 0.00 | 0.00 | 0.00 | 57 | 1013.5 |
| 20260831135438 | 83 | 196 | 1.0 | 5.0 | 0.00 | 0.00 | 0.00 | 58 | 1013.5 |
| 20260831134938 | 82 | 185 | 3.0 | 5.0 | 0.00 | 0.00 | 0.00 | 59 | 1013.5 |
| 20260831134437 | 82 | 162 | 3.0 | 6.0 | 0.00 | 0.00 | 0.00 | 60 | 1013.5 |
| 20260831133937 | 82 | 201 | 2.0 | 5.0 | 0.00 | 0.00 | 0.00 | 62 | 1013.5 |
| 20260831133437 | 81 | 149 | 3.0 | 4.0 | 0.00 | 0.00 | 0.00 | 63 | 1013.5 |
| 20260831132938 | 80 | 231 | 0.0 | 4.0 | 0.00 | 0.00 | 0.00 | 64 | 1013.5 |
| 20260831132438 | 80 | 150 | 1.0 | 3.0 | 0.00 | 0.00 | 0.00 | 66 | 1013.5 |
| 20260831131937 | 79 | 142 | 1.0 | 2.0 | 0.00 | 0.00 | 0.00 | 66 | 1013.5 |
| 20260831131438 | 80 | 360 | 0.0 | 2.0 | 0.00 | 0.00 | 0.00 | 66 | 1013.5 |
| 20260831130938 | 79 | 360 | 0.0 | 2.0 | 0.00 | 0.00 | 0.00 | 65 | 1013.5 |
| 20260831130437 | 79 | 154 | 0.0 | 2.0 | 0.00 | 0.00 | 0.00 | 65 | 1013.5 |
| 20260831125938 | 78 | 360 | 0.0 | 1.0 | 0.00 | 0.00 | 0.00 | 67 | 1013.5 |
| 20260831125438 | 76 | 360 | 0.0 | 0.0 | 0.00 | 0.00 | 0.00 | 69 | 1013.5 |
| 20260831124938 | 76 | 360 | 0.0 | 0.0 | 0.00 | 0.00 | 0.00 | 71 | 1013.5 |
| 20260831124439 | 75 | 360 | 0.0 | 0.0 | 0.00 | 0.00 | 0.00 | 71 | 1013.5 |
| 20260831123937 | 73 | 360 | 0.0 | 0.0 | 0.00 | 0.00 | 0.00 | 73 | 1013.5 |
| 20260831123439 | 72 | 360 | 0.0 | 0.0 | 0.00 | 0.00 | 0.00 | 76 | 1013.5 |
| 20260831122937 | 71 | 360 | 0.0 | 0.0 | 0.00 | 0.00 | 0.00 | 77 | 1013.5 |
| 20260831122437 | 71 | 360 | 0.0 | 0.0 | 0.00 | 0.00 | 0.00 | 78 | 1013.5 |
| 20260831121937 | 70 | 360 | 0.0 | 0.0 | 0.00 | 0.00 | 0.00 | 80 | 1013.5 |
| 20260831121438 | 69 | 360 | 0.0 | 1.0 | 0.00 | 0.00 | 0.00 | 81 | 1013.5 |
| 20260831120937 | 69 | 322 | 0.0 | 2.0 | 0.00 | 0.00 | 0.00 | 82 | 1013.5 |
| 20260831120438 | 68 | 334 | 1.0 | 2.0 | 0.00 | 0.00 | 0.00 | 83 | 1013.5 |
| 20260831115938 | 68 | 329 | 1.0 | 2.0 | 0.00 | 0.00 | 0.00 | 83 | 1013.5 |
| 20260831115438 | 68 | 334 | 1.0 | 2.0 | 0.00 | 0.00 | 0.00 | 83 | 1013.5 |
| 20260831114938 | 68 | 326 | 1.0 | 2.0 | 0.00 | 0.00 | 0.00 | 83 | 1013.5 |
| 20260831114438 | 68 | 331 | 1.0 | 2.0 | 0.00 | 0.00 | 0.00 | 83 | 1013.5 |
| 20260831113937 | 68 | 335 | 1.0 | 2.0 | 0.00 | 0.00 | 0.00 | 83 | 1013.5 |
| 20260831113437 | 68 | 347 | 1.0 | 2.0 | 0.00 | 0.00 | 0.00 | 83 | 1013.5 |
| 20260831112937 | 68 | 320 | 1.0 | 2.0 | 0.00 | 0.00 | 0.00 | 82 | 1013.5 |
| 20260831112437 | 68 | 342 | 0.0 | 1.0 | 0.00 | 0.00 | 0.00 | 82 | 1013.5 |
| 20260831111937 | 68 | 254 | 0.0 | 2.0 | 0.00 | 0.00 | 0.00 | 82 | 1013.5 |
| 20260831111437 | 68 | 317 | 0.0 | 1.0 | 0.00 | 0.00 | 0.00 | 82 | 1013.5 |
| 20260831110938 | 68 | 335 | 1.0 | 2.0 | 0.00 | 0.00 | 0.00 | 81 | 1013.5 |
| 20260831110439 | 68 | 327 | 1.0 | 2.0 | 0.00 | 0.00 | 0.00 | 81 | 1013.5 |
| 20260831105938 | 68 | 338 | 0.0 | 2.0 | 0.00 | 0.00 | 0.00 | 81 | 1013.5 |
| 20260831105437 | 68 | 326 | 0.0 | 2.0 | 0.00 | 0.00 | 0.00 | 80 | 1013.5 |
| 20260831104937 | 68 | 357 | 1.0 | 2.0 | 0.00 | 0.00 | 0.00 | 80 | 1013.5 |
| 20260831104437 | 68 | 337 | 1.0 | 2.0 | 0.00 | 0.00 | 0.00 | 80 | 1013.5 |
| 20260831103937 | 68 | 307 | 1.0 | 2.0 | 0.00 | 0.00 | 0.00 | 79 | 1013.5 |
| 20260831103438 | 68 | 346 | 1.0 | 2.0 | 0.00 | 0.00 | 0.00 | 80 | 1013.5 |
| 20260831102937 | 68 | 349 | 1.0 | 2.0 | 0.00 | 0.00 | 0.00 | 80 | 1013.5 |
| 20260831102437 | 69 | 360 | 0.0 | 1.0 | 0.00 | 0.00 | 0.00 | 79 | 1013.5 |
| 20260831101938 | 69 | 338 | 1.0 | 2.0 | 0.00 | 0.00 | 0.00 | 79 | 1013.5 |
| 20260831101437 | 69 | 331 | 1.0 | 2.0 | 0.00 | 0.00 | 0.00 | 79 | 1013.5 |
| 20260831100937 | 69 | 336 | 1.0 | 2.0 | 0.00 | 0.00 | 0.00 | 79 | 1013.5 |
| 20260831100437 | 69 | 343 | 1.0 | 2.0 | 0.00 | 0.00 | 0.00 | 79 | 1013.5 |
| 20260831095937 | 69 | 347 | 1.0 | 2.0 | 0.00 | 0.00 | 0.00 | 78 | 1013.5 |
| 20260831095437 | 69 | 322 | 0.0 | 2.0 | 0.00 | 0.00 | 0.00 | 78 | 1013.5 |
| 20260831094938 | 69 | 341 | 1.0 | 2.0 | 0.00 | 0.00 | 0.00 | 78 | 1013.5 |
| 20260831094438 | 69 | 339 | 1.0 | 2.0 | 0.00 | 0.00 | 0.00 | 78 | 1013.5 |
| 20260831093937 | 69 | 337 | 1.0 | 2.0 | 0.00 | 0.00 | 0.00 | 78 | 1013.5 |
| 20260831093437 | 69 | 351 | 1.0 | 2.0 | 0.00 | 0.00 | 0.00 | 78 | 1013.5 |
| 20260831092937 | 69 | 339 | 1.0 | 2.0 | 0.00 | 0.00 | 0.00 | 78 | 1013.5 |
| 20260831092437 | 69 | 4 | 0.0 | 1.0 | 0.00 | 0.00 | 0.00 | 78 | 1013.5 |
| 20260831091938 | 69 | 360 | 0.0 | 1.0 | 0.00 | 0.00 | 0.00 | 78 | 1013.5 |
| 20260831091437 | 69 | 360 | 0.0 | 2.0 | 0.00 | 0.00 | 0.00 | 77 | 1013.5 |
| 20260831090937 | 69 | 335 | 1.0 | 2.0 | 0.00 | 0.00 | 0.00 | 77 | 1013.5 |
| 20260831090437 | 69 | 341 | 2.0 | 2.0 | 0.00 | 0.00 | 0.00 | 77 | 1013.5 |
| 20260831085937 | 69 | 310 | 0.0 | 2.0 | 0.00 | 0.00 | 0.00 | 77 | 1013.5 |
| 20260831085437 | 69 | 331 | 1.0 | 2.0 | 0.00 | 0.00 | 0.00 | 77 | 1013.5 |
| 20260831084941 | 69 | 334 | 0.0 | 2.0 | 0.00 | 0.00 | 0.00 | 77 | 1013.5 |
| 20260831084437 | 69 | 330 | 1.0 | 1.0 | 0.00 | 0.00 | 0.00 | 77 | 1013.5 |
| 20260831083937 | 69 | 360 | 0.0 | 0.0 | 0.00 | 0.00 | 0.00 | 78 | 1013.5 |
| 20260831083440 | 70 | 360 | 0.0 | 0.0 | 0.00 | 0.00 | 0.00 | 77 | 1013.5 |
| 20260831082937 | 70 | 360 | 0.0 | 1.0 | 0.00 | 0.00 | 0.00 | 75 | 1013.5 |
| 20260831082439 | 70 | 313 | 0.0 | 2.0 | 0.00 | 0.00 | 0.00 | 76 | 1013.5 |
| 20260831081938 | 70 | 336 | 1.0 | 3.0 | 0.00 | 0.00 | 0.00 | 76 | 1013.5 |
| 20260831081438 | 70 | 323 | 1.0 | 2.0 | 0.00 | 0.00 | 0.00 | 76 | 1013.5 |
| 20260831080937 | 70 | 323 | 1.0 | 2.0 | 0.00 | 0.00 | 0.00 | 76 | 1013.5 |
| 20260831080437 | 70 | 312 | 1.0 | 2.0 | 0.00 | 0.00 | 0.00 | 76 | 1013.5 |
| 20260831075937 | 70 | 332 | 1.0 | 2.0 | 0.00 | 0.00 | 0.00 | 76 | 1013.5 |
| 20260831075438 | 70 | 317 | 1.0 | 2.0 | 0.00 | 0.00 | 0.00 | 75 | 1013.5 |
| 20260831074939 | 71 | 332 | 1.0 | 2.0 | 0.00 | 0.00 | 0.00 | 76 | 1013.5 |
| 20260831074438 | 71 | 320 | 0.0 | 2.0 | 0.00 | 0.00 | 0.00 | 75 | 1013.5 |
| 20260831073937 | 71 | 330 | 0.0 | 2.0 | 0.00 | 0.00 | 0.00 | 75 | 1013.5 |
| 20260831073437 | 71 | 320 | 0.0 | 2.0 | 0.00 | 0.00 | 0.00 | 75 | 1013.5 |
| 20260831072937 | 71 | 309 | 1.0 | 2.0 | 0.00 | 0.00 | 0.00 | 75 | 1013.5 |
| 20260831072437 | 71 | 334 | 0.0 | 2.0 | 0.00 | 0.00 | 0.00 | 74 | 1013.5 |
| 20260831071938 | 71 | 328 | 1.0 | 2.0 | 0.00 | 0.00 | 0.00 | 74 | 1013.5 |
| 20260831071437 | 71 | 323 | 1.0 | 2.0 | 0.00 | 0.00 | 0.00 | 74 | 1013.5 |
| 20260831070937 | 71 | 332 | 1.0 | 2.0 | 0.00 | 0.00 | 0.00 | 75 | 1013.5 |
| 20260831070437 | 71 | 324 | 0.0 | 1.0 | 0.00 | 0.00 | 0.00 | 75 | 1013.5 |
| 20260831065937 | 71 | 360 | 0.0 | 0.0 | 0.00 | 0.00 | 0.00 | 75 | 1013.5 |
| 20260831065438 | 72 | 360 | 0.0 | 0.0 | 0.00 | 0.00 | 0.00 | 75 | 1013.5 |
| 20260831064937 | 72 | 360 | 0.0 | 1.0 | 0.00 | 0.00 | 0.00 | 72 | 1013.5 |
| 20260831064438 | 73 | 360 | 0.0 | 2.0 | 0.00 | 0.00 | 0.00 | 71 | 1013.5 |
| 20260831063937 | 73 | 343 | 0.0 | 2.0 | 0.00 | 0.00 | 0.00 | 70 | 1013.5 |
| 20260831063438 | 73 | 330 | 1.0 | 2.0 | 0.00 | 0.00 | 0.00 | 71 | 1013.5 |
| 20260831062938 | 73 | 337 | 1.0 | 2.0 | 0.00 | 0.00 | 0.00 | 71 | 1013.5 |
| 20260831062437 | 73 | 342 | 0.0 | 2.0 | 0.00 | 0.00 | 0.00 | 70 | 1013.5 |
| 20260831061937 | 73 | 317 | 1.0 | 2.0 | 0.00 | 0.00 | 0.00 | 70 | 1013.5 |
| 20260831061438 | 73 | 325 | 1.0 | 2.0 | 0.00 | 0.00 | 0.00 | 70 | 1013.5 |
| 20260831060937 | 73 | 304 | 1.0 | 2.0 | 0.00 | 0.00 | 0.00 | 71 | 1013.5 |
| 20260831060437 | 73 | 312 | 1.0 | 2.0 | 0.00 | 0.00 | 0.00 | 71 | 1013.5 |
| 20260831055937 | 73 | 312 | 1.0 | 2.0 | 0.00 | 0.00 | 0.00 | 73 | 1013.5 |
| 20260831055437 | 73 | 6 | 0.0 | 1.0 | 0.00 | 0.00 | 0.00 | 73 | 1013.5 |
| 20260831054938 | 73 | 11 | 0.0 | 2.0 | 0.00 | 0.00 | 0.00 | 73 | 1013.5 |
| 20260831054437 | 73 | 338 | 1.0 | 2.0 | 0.00 | 0.00 | 0.00 | 73 | 1013.5 |
| 20260831053937 | 73 | 332 | 1.0 | 2.0 | 0.00 | 0.00 | 0.00 | 73 | 1013.5 |
| 20260831053436 | 74 | 360 | 0.0 | 0.0 | 0.00 | 0.00 | 0.00 | 73 | 1013.5 |
| 20260831052937 | 74 | 360 | 0.0 | 1.0 | 0.00 | 0.00 | 0.00 | 72 | 1013.5 |
| 20260831052437 | 74 | 270 | 0.0 | 2.0 | 0.00 | 0.00 | 0.00 | 71 | 1013.5 |
| 20260831051938 | 74 | 336 | 0.0 | 2.0 | 0.00 | 0.00 | 0.00 | 71 | 1013.5 |
| 20260831051437 | 75 | 360 | 0.0 | 2.0 | 0.00 | 0.00 | 0.00 | 70 | 1013.5 |
| 20260831050937 | 75 | 327 | 1.0 | 2.0 | 0.00 | 0.00 | 0.00 | 69 | 1013.5 |
| 20260831050437 | 75 | 321 | 1.0 | 2.0 | 0.00 | 0.00 | 0.00 | 70 | 1013.5 |
| 20260831045937 | 75 | 317 | 1.0 | 2.0 | 0.00 | 0.00 | 0.00 | 69 | 1013.5 |